FW3572 Weather Reports


Display with metric or nautical units.
time (UTC)temp
F
wind
direction
speed
MPH
gust
MPH
rain 1hr
in
rain 24hr
in
rain mn
in
humidity
%
barometer
mb
20260502234546 78 322 3.0 11.0 0.00 0.00 0.00 100 1013.2
20260502234044 78 290 3.0 11.0 0.00 0.00 0.00 100 1013.2
20260502233544 78 313 3.0 8.0 0.00 0.00 0.00 100 1013.3
20260502233043 78 305 2.0 5.0 0.00 0.00 0.00 100 1013.0
20260502232544 78 311 2.0 5.0 0.00 0.00 0.00 100 1012.9
20260502232042 78 320 2.0 5.0 0.00 0.00 0.00 100 1012.8
20260502231546 78 315 2.0 5.0 0.00 0.00 0.00 100 1012.9
20260502231044 78 272 0.0 6.0 0.00 0.00 0.00 100 1012.8
20260502230543 79 222 1.0 11.0 0.00 0.00 0.00 100 1012.9
20260502230043 82 286 5.0 13.0 0.00 0.00 0.00 100 1012.6
20260502225542 82 318 4.0 14.0 0.00 0.00 0.00 100 1012.5
20260502225042 83 344 5.0 13.0 0.00 0.00 0.00 100 1012.1
20260502224543 84 331 5.0 13.0 0.00 0.00 0.00 100 1012.1
20260502224041 85 323 4.0 13.0 0.00 0.00 0.00 100 1012.0
20260502223541 86 302 5.0 10.0 0.00 0.00 0.00 100 1011.9
20260502223045 86 306 5.0 10.0 0.00 0.00 0.00 100 1011.8
20260502222544 86 296 2.0 10.0 0.00 0.00 0.00 100 1011.8
20260502222040 86 337 4.0 10.0 0.00 0.00 0.00 100 1011.8
20260502221545 87 348 4.0 12.0 0.00 0.00 0.00 100 1011.8
20260502221042 87 316 4.0 12.0 0.00 0.00 0.00 100 1011.7
20260502220542 87 355 4.0 11.0 0.00 0.00 0.00 100 1011.6
20260502220040 87 348 4.0 9.0 0.00 0.00 0.00 100 1011.6
20260502215540 88 314 4.0 9.0 0.00 0.00 0.00 100 1011.6
20260502215039 88 340 5.0 9.0 0.00 0.00 0.00 100 1011.6
20260502214550 88 308 3.0 13.0 0.00 0.00 0.00 100 1011.7
20260502214039 88 333 4.0 13.0 0.00 0.00 0.00 100 1011.7
20260502213542 89 319 5.0 13.0 0.00 0.00 0.00 100 1011.7
20260502213039 89 340 4.0 12.0 0.00 0.00 0.00 100 1011.7
20260502212540 89 315 3.0 10.0 0.00 0.00 0.00 100 1011.7
20260502212038 90 315 2.0 11.0 0.00 0.00 0.00 100 1011.5
20260502211538 90 291 6.0 11.0 0.00 0.00 0.00 100 1011.4
20260502211037 91 302 4.0 12.0 0.00 0.00 0.00 100 1011.3
20260502210535 91 342 3.0 13.0 0.00 0.00 0.00 100 1011.3
20260502210046 90 265 4.0 13.0 0.00 0.00 0.00 100 1011.2
20260502205533 91 316 3.0 10.0 0.00 0.00 0.00 100 1011.2
20260502205031 91 28 3.0 11.0 0.00 0.00 0.00 100 1011.2
20260502204532 91 317 3.0 11.0 0.00 0.00 0.00 100 1011.3
20260502204029 91 296 2.0 11.0 0.00 0.00 0.00 100 1011.2
20260502203526 91 318 3.0 13.0 0.00 0.00 0.00 100 1011.2
20260502203025 91 291 5.0 13.0 0.00 0.00 0.00 100 1011.3
20260502202525 91 227 4.0 15.0 0.00 0.00 0.00 100 1011.3
20260502202021 91 228 5.0 15.0 0.00 0.00 0.00 100 1011.2
20260502201523 91 259 6.0 13.0 0.00 0.00 0.00 100 1011.3
20260502201019 91 334 3.0 14.0 0.00 0.00 0.00 100 1011.3
20260502200517 90 217 4.0 14.0 0.00 0.00 0.00 100 1011.2
20260502200016 91 243 5.0 11.0 0.00 0.00 0.00 100 1011.3
20260502195513 91 234 4.0 14.0 0.00 0.00 0.00 100 1011.2
20260502195013 90 234 4.0 15.0 0.00 0.00 0.00 100 1011.3
20260502194512 91 244 4.0 15.0 0.00 0.00 0.00 100 1011.4
20260502194010 91 242 3.0 17.0 0.00 0.00 0.00 100 1011.4
20260502193511 91 196 8.0 17.0 0.00 0.00 0.00 100 1011.5
20260502193007 91 306 6.0 15.0 0.00 0.00 0.00 100 1011.5
20260502192508 91 309 5.0 17.0 0.00 0.00 0.00 100 1011.6
20260502192006 91 261 8.0 17.0 0.00 0.00 0.00 100 1011.6
20260502191502 91 350 6.0 19.0 0.00 0.00 0.00 100 1011.5
20260502191001 91 211 6.0 21.0 0.00 0.00 0.00 100 1011.6
20260502190559 91 247 11.0 21.0 0.00 0.00 0.00 100 1011.5
20260502190158 91 232 9.0 21.0 0.00 0.00 0.00 100 1011.7
20260502185556 91 167 9.0 19.0 0.00 0.00 0.00 100 1011.7
20260502185054 90 252 5.0 15.0 0.00 0.00 0.00 100 1011.6
20260502184553 90 216 4.0 15.0 0.00 0.00 0.00 100 1011.6
20260502184053 90 242 4.0 15.0 0.00 0.00 0.00 100 1011.6
20260502183551 90 230 4.0 15.0 0.00 0.00 0.00 100 1011.6
20260502183056 90 217 5.0 16.0 0.00 0.00 0.00 100 1011.7
20260502182549 90 234 6.0 16.0 0.00 0.00 0.00 100 1011.8
20260502182045 90 231 5.0 15.0 0.00 0.00 0.00 100 1011.8
20260502181544 90 216 5.0 18.0 0.00 0.00 0.00 100 1011.8
20260502181046 90 227 10.0 18.0 0.00 0.00 0.00 100 1011.8
20260502180541 90 160 4.0 20.0 0.00 0.00 0.00 100 1011.9
20260502164016 88 198 9.0 20.0 0.00 0.00 0.00 100 1012.8
20260502163517 88 229 6.0 19.0 0.00 0.00 0.00 100 1012.8
20260502163019 88 211 7.0 19.0 0.00 0.00 0.00 100 1012.9
20260502162512 88 294 7.0 17.0 0.00 0.00 0.00 100 1012.9
20260502162011 88 231 3.0 19.0 0.00 0.00 0.00 100 1012.8
20260502161508 87 227 8.0 19.0 0.00 0.00 0.00 100 1012.9
20260502161007 87 239 5.0 19.0 0.00 0.00 0.00 100 1013.0
20260502160507 87 229 6.0 19.0 0.00 0.00 0.00 100 1013.0
20260502152053 85 229 7.0 17.0 0.00 0.00 0.00 100 1012.9
20260502151556 85 159 7.0 17.0 0.00 0.00 0.00 100 1012.9
20260502151050 84 219 6.0 17.0 0.00 0.00 0.00 100 1012.8
20260502150550 84 234 6.0 17.0 0.00 0.00 0.00 100 1012.9
20260502130535 77 223 2.0 9.0 0.00 0.00 0.00 100 1012.8
20260502123533 74 211 2.0 7.0 0.00 0.00 0.00 100 1012.8
20260502123039 74 238 1.0 7.0 0.00 0.00 0.00 100 1012.8
20260502122531 74 222 1.0 5.0 0.00 0.00 0.00 100 1012.7
20260502122031 73 244 2.0 7.0 0.00 0.00 0.00 100 1012.8
20260502121533 73 251 2.0 7.0 0.00 0.00 0.00 100 1012.6
20260502121030 72 244 1.0 5.0 0.00 0.00 0.00 100 1012.7
20260502120531 72 219 1.0 5.0 0.00 0.00 0.00 100 1012.8
20260502115530 71 244 2.0 5.0 0.00 0.00 0.00 100 1012.6
20260502115030 70 182 1.0 6.0 0.00 0.00 0.00 100 1012.7
20260502114540 70 186 2.0 6.0 0.00 0.00 0.00 100 1012.6
20260502114031 70 180 1.0 5.0 0.00 0.00 0.00 100 1012.7
20260502113530 70 235 1.0 6.0 0.00 0.00 0.00 100 1012.8
20260502113031 70 166 2.0 6.0 0.00 0.00 0.00 100 1012.7
20260502112529 70 194 2.0 4.0 0.00 0.00 0.00 100 1012.7
20260502112031 70 205 1.0 4.0 0.00 0.00 0.00 100 1012.8
20260502111529 70 207 1.0 4.0 0.00 0.00 0.00 100 1012.9
20260502111029 70 227 0.0 3.0 0.00 0.00 0.00 100 1012.9
20260502110529 70 229 1.0 4.0 0.00 0.00 0.00 100 1012.9
20260502110029 70 238 1.0 4.0 0.00 0.00 0.00 100 1012.9
20260502105527 70 230 2.0 4.0 0.00 0.00 0.00 100 1012.9
20260502105029 70 210 1.0 4.0 0.00 0.00 0.00 100 1012.8
20260502104527 70 211 1.0 4.0 0.00 0.00 0.00 100 1012.7
20260502104028 70 213 0.0 3.0 0.00 0.00 0.00 100 1012.8
20260502103527 70 212 1.0 3.0 0.00 0.00 0.00 100 1012.7
20260502103027 70 213 0.0 3.0 0.00 0.00 0.00 100 1012.7
20260502102527 70 207 0.0 4.0 0.00 0.00 0.00 100 1012.7
20260502102027 70 202 0.0 6.0 0.00 0.00 0.00 100 1012.7
20260502101526 70 197 2.0 6.0 0.00 0.00 0.00 100 1012.7
20260502101026 70 208 1.0 4.0 0.00 0.00 0.00 100 1012.7
20260502100525 70 210 1.0 4.0 0.00 0.00 0.00 100 1012.8
20260502091521 71 246 0.0 3.0 0.00 0.00 0.00 100 1012.7
20260502091021 71 294 0.0 5.0 0.00 0.00 0.00 100 1012.6
20260502090521 71 229 1.0 5.0 0.00 0.00 0.00 100 1012.6
20260502071510 74 240 1.0 5.0 0.00 0.00 0.00 100 1012.6
20260502071010 74 240 1.0 6.0 0.00 0.00 0.00 100 1012.5
20260502070509 74 229 2.0 4.0 0.00 0.00 0.00 100 1012.6
20260502070009 74 222 1.0 4.0 0.00 0.00 0.00 100 1012.7
20260502065508 74 230 1.0 4.0 0.00 0.00 0.00 100 1012.5
20260502065007 74 235 0.0 7.0 0.00 0.00 0.00 100 1012.5
20260502064512 74 234 1.0 7.0 0.00 0.00 0.00 100 1012.5
20260502064007 74 233 1.0 5.0 0.00 0.00 0.00 100 1012.5
20260502063507 74 220 1.0 5.0 0.00 0.00 0.00 100 1012.7
20260502063009 74 196 2.0 5.0 0.00 0.00 0.00 100 1012.5
20260502062506 74 213 1.0 5.0 0.00 0.00 0.00 100 1012.5
20260502062006 75 218 1.0 5.0 0.00 0.00 0.00 100 1012.6
20260502061504 75 199 1.0 4.0 0.00 0.00 0.00 100 1012.6
20260502061003 75 213 1.0 5.0 0.00 0.00 0.00 100 1012.6
20260502060505 75 212 2.0 7.0 0.00 0.00 0.00 100 1012.8
20260502060003 75 198 1.0 7.0 0.00 0.00 0.00 100 1012.8
20260502055502 75 228 2.0 5.0 0.00 0.00 0.00 100 1012.7
20260502055001 75 246 2.0 8.0 0.00 0.00 0.00 100 1012.9
20260502054503 76 224 3.0 8.0 0.00 0.00 0.00 100 1013.0
20260502054002 76 208 2.0 6.0 0.00 0.00 0.00 100 1013.1
20260502053600 76 198 2.0 7.0 0.00 0.00 0.00 100 1013.1
20260502053102 76 205 3.0 5.0 0.00 0.00 0.00 100 1013.1
20260502052559 76 213 2.0 6.0 0.00 0.00 0.00 100 1013.1
20260502052058 76 194 3.0 8.0 0.00 0.00 0.00 100 1013.2
20260502051557 76 186 3.0 8.0 0.00 0.00 0.00 100 1013.2
20260502051058 76 167 3.0 7.0 0.00 0.00 0.00 100 1013.2
20260502050557 76 182 1.0 4.0 0.00 0.00 0.00 100 1013.2
20260502050056 76 246 1.0 7.0 0.00 0.00 0.00 100 1013.3
20260502045656 76 224 2.0 7.0 0.00 0.00 0.00 100 1013.3
20260502045055 76 210 2.0 5.0 0.00 0.00 0.00 100 1013.2
20260502044607 76 232 2.0 5.0 0.00 0.00 0.00 100 1013.2
20260502044056 77 225 1.0 5.0 0.00 0.00 0.00 100 1013.2
20260502043556 77 217 1.0 5.0 0.00 0.00 0.00 100 1013.2
20260502043124 77 220 2.0 5.0 0.00 0.00 0.00 100 1013.2
20260502042553 77 227 3.0 5.0 0.00 0.00 0.00 100 1013.2
20260502042052 77 189 1.0 4.0 0.00 0.00 0.00 100 1013.2
20260502041600 77 197 2.0 5.0 0.00 0.00 0.00 100 1013.2
20260502041054 77 242 3.0 8.0 0.00 0.00 0.00 100 1013.2
20260502040554 77 204 2.0 5.0 0.00 0.00 0.00 100 1013.3
20260502040051 77 213 2.0 7.0 0.00 0.00 0.00 100 1013.2
20260502035550 77 225 3.0 7.0 0.00 0.00 0.00 100 1013.3
20260502035049 77 235 2.0 8.0 0.00 0.00 0.00 100 1013.4
20260502034549 78 234 2.0 7.0 0.00 0.00 0.00 100 1013.3
20260502034050 78 217 2.0 7.0 0.00 0.00 0.00 100 1013.3
20260502033548 78 235 2.0 8.0 0.00 0.00 0.00 100 1013.3
20260502033051 78 211 2.0 8.0 0.00 0.00 0.00 100 1013.3
20260502032548 78 203 3.0 7.0 0.00 0.00 0.00 100 1013.3
20260502032050 78 218 2.0 7.0 0.00 0.00 0.00 100 1013.2
20260502031550 78 192 2.0 7.0 0.00 0.00 0.00 100 1013.2
20260502031048 78 210 3.0 7.0 0.00 0.00 0.00 100 1013.2
20260502030547 78 214 2.0 9.0 0.00 0.00 0.00 100 1013.2
20260502030049 78 228 3.0 9.0 0.00 0.00 0.00 100 1013.2
20260502025547 78 176 3.0 9.0 0.00 0.00 0.00 100 1013.3
20260502025047 78 221 3.0 9.0 0.00 0.00 0.00 100 1013.3
20260502024548 78 236 2.0 6.0 0.00 0.00 0.00 100 1013.2
20260502024047 78 202 3.0 6.0 0.00 0.00 0.00 100 1013.1
20260502023549 79 205 2.0 9.0 0.00 0.00 0.00 100 1013.1
20260502023047 79 181 4.0 9.0 0.00 0.00 0.00 100 1013.0
20260502022545 79 159 4.0 9.0 0.00 0.00 0.00 100 1012.9
20260502022045 79 171 3.0 8.0 0.00 0.00 0.00 100 1012.9
20260502021546 79 190 4.0 8.0 0.00 0.00 0.00 100 1012.9
20260502021045 79 141 4.0 12.0 0.00 0.00 0.00 100 1012.9
20260502020548 79 190 3.0 9.0 0.00 0.00 0.00 100 1012.8
20260502020045 79 159 5.0 10.0 0.00 0.00 0.00 100 1012.7
20260502015545 79 192 3.0 8.0 0.00 0.00 0.00 100 1012.8
20260502015045 79 174 3.0 8.0 0.00 0.00 0.00 100 1012.7
20260502014545 79 198 3.0 12.0 0.00 0.00 0.00 100 1012.7
20260502014044 80 169 5.0 12.0 0.00 0.00 0.00 100 1012.6
20260502013544 80 157 4.0 11.0 0.00 0.00 0.00 100 1012.6
20260502013052 80 161 5.0 11.0 0.00 0.00 0.00 100 1012.5
20260502012544 80 166 5.0 11.0 0.00 0.00 0.00 100 1012.4
20260502012044 80 175 6.0 13.0 0.00 0.00 0.00 100 1012.5
20260502011547 80 159 7.0 13.0 0.00 0.00 0.00 100 1012.4
20260502011043 80 125 6.0 13.0 0.00 0.00 0.00 100 1012.3
20260502010543 80 171 5.0 13.0 0.00 0.00 0.00 100 1012.3
20260502010043 80 174 5.0 14.0 0.00 0.00 0.00 100 1012.1
20260502005544 80 162 4.0 13.0 0.00 0.00 0.00 100 1012.2
20260502005043 80 115 4.0 14.0 0.00 0.00 0.00 100 1012.1
20260502004545 80 189 4.0 12.0 0.00 0.00 0.00 100 1012.0
20260502004043 80 172 5.0 11.0 0.00 0.00 0.00 100 1011.9
20260502003542 80 165 6.0 11.0 0.00 0.00 0.00 100 1011.9
20260502003042 80 151 4.0 10.0 0.00 0.00 0.00 100 1011.8
20260502002541 80 133 6.0 11.0 0.00 0.00 0.00 100 1011.7
20260502002043 80 150 5.0 11.0 0.00 0.00 0.00 100 1011.6
20260502001541 80 162 4.0 11.0 0.00 0.00 0.00 100 1011.5
20260502001041 80 171 6.0 11.0 0.00 0.00 0.00 100 1011.4
20260502000541 81 151 5.0 11.0 0.00 0.00 0.00 100 1011.4
20260502000041 81 177 3.0 11.0 0.00 0.00 0.00 100 1011.4
20260501235540 81 167 6.0 11.0 0.00 0.00 0.00 100 1011.4
20260501235040 81 139 5.0 12.0 0.00 0.00 0.00 100 1011.4